{"data":{"norad_id":66258,"epoch":"2026-05-25T03:10:29.174304Z","epoch_age_seconds":70585,"freshness":"FRESH","line1":"1 66258U 25245AA  26145.13228211  .00018732  00000+0  64286-3 0  9992","line2":"2 66258  53.1594 288.5736 0000979  89.6352 270.4761 15.30206826 32963","mean_motion":15.30206826,"eccentricity":9.79e-5,"inclination_deg":53.1594,"raan_deg":288.5736,"arg_perigee_deg":89.6352,"mean_anomaly_deg":270.4761,"bstar":0.00064286,"rev_number":3296,"period_min":94.104925918034,"perigee_km":474.5237471172,"apogee_km":475.86562946177,"semimajor_km":6853.3316882895,"source":"CELESTRAK","updated_at":"2026-05-25T13:38:21.138689Z"}}